This is the latest recevied weather packets stored in our database for station/object WX7FGZ-6. If no packets are shown the sender has not sent any weather packets the latest 10 day(s).
| Time | Temp. | Humidity | Pressure | Rain* | Wind** | Luminosity | Snow |
|---|---|---|---|---|---|---|---|
| 1777977761 | -4.44° C | 88% | 1012 hPa | 0 mm | - | - | - |
| 1777977460 | -4.44° C | 88% | 1012 hPa | 0 mm | - | - | - |
| 1777977160 | -4.44° C | 87% | 1012.1 hPa | 0 mm | - | - | - |
| 1777976672 | -5° C | 82% | - | 0 mm | - | - | - |
| 1777976668 | -5° C | 82% | 1012.2 hPa | 0 mm | - | - | - |
| 1777976510 | -5° C | 80% | 1012.5 hPa | 0 mm | - | - | - |
| 1777976297 | -5° C | 77% | 1012.6 hPa | 0 mm | - | - | - |
| 1777976297 | -5° C | 78% | 1012.4 hPa | 0 mm | - | - | - |
| 1777976297 | -5° C | 80% | 1012.5 hPa | 0 mm | - | - | - |
| 1777976251 | -5° C | 80% | 1012.5 hPa | 0 mm | - | - | - |
| 1777975951 | -5° C | 78% | 1012.4 hPa | 0 mm | - | - | - |
| 1777975652 | -5° C | 77% | 1012.6 hPa | 0 mm | - | - | - |
| 1777975352 | -5° C | 76% | 1012.4 hPa | 0 mm | - | - | - |
| 1777975052 | -5° C | 78% | 1012.5 hPa | 0 mm | - | - | - |
| 1777974752 | -5° C | 83% | 1012.8 hPa | 0 mm | - | - | - |
| 1777974452 | -4.44° C | 85% | 1012.6 hPa | 0 mm | - | - | - |
| 1777974151 | -4.44° C | 86% | 1012.8 hPa | 0 mm | - | - | - |
| 1777973610 | -4.44° C | 84% | 1012.8 hPa | 0 mm | - | - | - |
| 1777973310 | -4.44° C | 83% | 1012.9 hPa | 0 mm | - | - | - |
| 1777973010 | -4.44° C | 83% | 1013.1 hPa | 0 mm | - | - | - |
| 1777972748 | -4.44° C | 82% | 1013.1 hPa | 0 mm | - | - | - |
| 1777972710 | -4.44° C | 82% | 1013.1 hPa | 0 mm | - | - | - |
| 1777972236 | -4.44° C | 82% | 1012.7 hPa | 0 mm | - | - | - |
| 1777971936 | -4.44° C | 81% | 1012.8 hPa | 0 mm | - | - | - |
| 1777971508 | -4.44° C | 78% | 1012.8 hPa | 0 mm | - | - | - |
* Rain latest hour (hover to see other rain measurements)
** Current wind speed in m/s (hover to see current wind gust speed)